Location: Unspecified
(0.0000°N, 0.0000°E)
Time: 10:25:06
(UTC+00:00)

ISS - Pass Details

Date: 25 December 2024
Orbit: 413 x 417 km, 51.6° (Epoch: 16 July)

Event Time Altitude Azimuth Distance (km) Brightness Sun altitude
Rises 11:30:30 0° 319° (NW) 2,402 -0.1 65.5°
Reaches altitude 10° 11:32:37 10° 316° (NW) 1,538 -1.0 65.7°
Maximum altitude 11:36:03 62° 234° (SW) 495 -2.1 65.9°
Drops below altitude 10° 11:39:29 10° 153° (SSE) 1,544 -0.4 66.1°
Sets 11:41:38 0° 150° (SSE) 2,413 0.4 66.2°
